Location: Manchester NH
(43.0000°N, 71.5000°W)
Time: 23:35:00
(UTC-04:00)

Envisat - Visible Passes

Search period start: 13 October 2019 00:00
Search period end: 23 October 2019 00:00
Orbit: 764 x 766 km, 98.1° (Epoch: 13 October)

Date Brightness Start Highest point End Pass type
(mag) Time Alt. Az. Time Alt. Az. Time Alt. Az.
13 Oct 4.6 19:31:07 10° SSW 19:35:48 37° W 19:40:31 10° NNW visible
14 Oct 3.1 18:53:51 10° SSE 18:58:56 82° WSW 19:04:03 10° NNW visible
15 Oct 5.5 19:57:37 10° SW 20:01:29 22° W 20:05:24 10° NW visible
16 Oct 6.3 06:26:47 10° NE 06:29:36 15° E 06:32:25 10° ESE visible
16 Oct 4.1 19:19:36 10° S 19:24:29 47° W 19:29:24 10° NNW visible
17 Oct 3.0 18:42:36 10° SSE 18:47:41 80° ENE 18:52:46 10° N visible
17 Oct 6.1 20:25:15 10° WSW 20:27:18 12° W 20:29:21 10° WNW visible
18 Oct 5.1 19:45:51 10° SSW 19:50:08 27° W 19:54:27 10° NW visible
19 Oct 6.6 06:16:33 10° ENE 06:18:12 11° E 06:19:51 10° ESE visible
19 Oct 3.6 19:08:11 10° S 19:13:11 60° W 19:18:14 10° NNW visible
20 Oct 3.0 18:31:26 10° SSE 18:36:26 64° ENE 18:41:28 10° N visible
20 Oct 5.9 20:12:51 10° SW 20:15:54 16° W 20:18:57 10° NW visible
21 Oct 4.7 19:34:12 10° SSW 19:38:47 34° W 19:43:25 10° NNW visible
22 Oct 3.2 18:56:50 10° S 19:01:54 76° WSW 19:07:01 10° NNW visible
